Theta_e
311 312 316 325 329 333 333 337 332 335 334 326 325 326 328 329 336 331 328 331 333 331 330 328 327 324 323 320 320 320 320 319 317 317 316 315 312 309 309 311 316 314 313 317 321 321 320 318 315
311 315 325 331 334 340 341 337 338 335 333 330 325 324 325 328 326 327 329 331 331 329 326 327 326 325 323 321 322 321 321 318 317 318 318 318 315 311 314 317 316 314 313 313 322 326 325 323 322
315 325 334 338 341 343 341 336 336 335 330 326 327 324 325 328 328 328 330 331 329 328 326 325 325 325 324 323 322 321 319 317 317 318 318 320 318 316 321 326 324 321 318 315 325 328 328 327 326
326 330 333 338 342 340 338 337 336 334 327 324 324 327 325 326 326 327 329 330 329 327 327 325 325 324 323 323 322 320 317 317 316 316 316 317 317 324 328 327 330 325 322 322 326 326 327 330 329
329 334 332 338 338 337 336 336 334 332 328 325 324 327 327 326 327 327 328 330 329 326 325 324 324 324 324 323 323 321 318 318 317 316 315 315 323 328 328 327 327 325 328 328 326 320 326 326 326
330 332 334 331 330 331 331 331 330 329 327 327 325 325 327 326 327 327 327 330 328 324 322 322 322 324 324 323 322 321 319 319 320 318 317 319 326 326 324 325 326 327 328 327 327 327 324 326 325
330 333 329 330 328 328 329 329 329 328 328 329 326 327 327 326 326 326 327 329 327 323 321 321 322 324 325 324 322 320 320 320 321 319 318 325 323 324 324 325 324 323 324 325 327 327 324 325 326
328 330 330 330 328 328 327 326 325 327 329 328 325 328 328 327 325 326 327 329 327 322 321 320 321 323 325 325 323 320 321 321 322 319 319 320 322 323 323 321 320 320 319 319 321 322 324 325 324
329 330 329 328 327 328 326 328 326 326 327 326 325 327 327 326 326 326 326 328 327 323 322 322 322 323 325 325 323 321 322 322 322 320 320 321 322 323 322 320 317 317 318 318 319 320 323 323 325
328 330 329 328 327 327 327 327 328 328 328 328 327 327 326 328 327 326 326 327 327 324 321 322 322 323 324 325 323 322 322 322 321 318 321 323 323 323 323 320 321 320 318 323 324 327 326 326 327
327 330 328 328 327 326 327 327 327 327 328 327 328 327 327 327 328 327 325 325 326 326 322 322 322 324 325 326 323 323 323 322 318 319 324 324 324 325 325 322 322 319 320 322 324 325 325 325 328
327 327 327 327 327 326 327 327 327 328 328 328 327 327 327 329 328 327 325 325 326 326 324 323 322 324 326 327 323 323 323 322 317 321 325 325 325 325 325 323 324 319 321 323 322 323 322 323 324
327 327 327 327 327 327 327 327 328 327 326 326 327 328 328 328 328 327 325 324 325 327 325 323 323 323 325 327 323 323 323 319 319 324 326 326 326 325 325 325 325 323 320 321 323 323 322 321 323
324 325 326 326 327 327 327 327 327 327 327 327 327 327 326 327 328 326 325 325 324 325 326 324 324 324 326 327 324 324 322 318 324 327 327 328 328 326 326 326 325 325 324 321 320 322 320 322 322
324 327 327 326 326 327 324 324 324 324 325 325 325 326 326 326 325 325 326 326 325 325 326 326 324 324 326 326 325 323 319 321 325 326 327 328 329 329 328 327 326 326 326 324 322 321 320 321 322
319 320 321 321 321 321 321 323 324 324 325 325 326 325 324 324 325 325 325 326 325 324 325 325 325 324 325 326 325 322 317 323 325 327 327 328 328 329 329 327 327 327 327 326 322 322 320 320 322
319 320 320 321 321 322 323 324 323 323 323 323 324 324 324 324 323 323 325 325 325 324 324 324 324 324 324 327 323 319 319 323 326 327 328 327 328 328 328 327 327 326 326 324 322 323 321 321 323
320 319 319 320 321 320 321 322 322 322 322 323 323 324 324 323 322 325 325 325 325 325 324 323 324 323 325 324 321 317 322 324 326 328 327 327 328 328 327 327 326 324 324 322 322 323 321 321 322
319 320 321 322 320 318 320 320 321 322 322 323 323 322 322 323 324 325 326 326 326 325 324 324 323 324 324 323 320 318 322 325 327 327 328 327 328 327 328 328 326 323 322 322 322 322 321 321 322
318 319 319 318 317 318 319 320 322 322 322 322 323 323 324 325 324 326 326 326 326 324 324 323 323 323 323 322 318 321 325 326 326 328 327 327 327 327 326 327 325 321 321 322 322 321 321 320 322
317 317 318 318 318 318 319 320 320 322 323 322 322 322 323 323 324 326 326 325 322 322 323 323 323 324 323 319 321 323 325 327 325 324 325 327 327 325 323 324 323 322 321 321 321 320 320 322 321
317 317 317 317 318 318 321 322 322 322 323 323 322 323 324 323 323 325 326 325 322 321 322 323 324 323 320 319 322 324 327 326 323 322 323 325 325 323 323 324 322 321 320 320 319 318 320 320 321
317 317 318 318 320 321 321 322 321 322 322 323 324 322 325 323 323 322 324 324 322 321 323 324 324 320 320 321 324 327 326 326 324 321 323 324 325 322 321 321 320 319 320 320 319 319 319 320 322
317 318 319 320 320 320 320 321 321 322 322 322 324 325 324 323 324 322 324 324 322 323 323 324 321 321 322 323 325 329 328 326 324 322 322 324 325 322 320 319 320 321 320 321 321 320 320 321 322
319 320 319 318 319 320 320 321 322 321 321 322 324 326 324 322 323 323 324 323 323 323 324 322 321 322 323 324 327 328 328 325 325 323 324 324 323 321 320 321 321 323 324 323 323 322 322 322 322
320 319 320 322 322 321 321 321 321 324 323 321 322 324 323 324 324 325 325 323 323 324 323 323 323 322 323 326 328 327 327 325 323 322 322 322 322 320 320 321 321 322 322 323 323 323 323 323 322
318 319 319 318 321 322 324 324 324 325 325 326 325 323 325 326 325 325 325 324 324 324 324 323 324 322 324 328 327 328 328 324 322 321 321 321 321 319 319 321 321 321 321 321 322 322 323 323 321
315 317 318 318 317 318 318 322 325 327 326 326 327 326 326 326 325 325 325 324 324 324 324 325 322 323 324 327 327 327 328 326 324 324 320 320 320 319 318 319 321 322 321 321 322 323 323 323 322
314 317 318 319 318 318 318 319 325 328 328 328 327 326 326 327 326 325 325 325 325 325 324 323 322 325 325 326 327 326 328 326 324 324 324 319 319 319 318 319 322 320 321 322 323 324 324 322 322
316 317 318 317 319 318 323 323 325 327 327 325 325 325 326 327 326 325 326 325 325 324 324 321 323 324 324 325 326 326 326 326 325 324 324 322 318 318 318 318 318 319 322 322 325 327 327 328 327
Wind_Speed
14 15 15 7 2 2 3 4 4 7 2 2 1 5 6 3 5 9 4 9 13 15 18 19 17 15 13 13 11 11 9 9 10 11 11 11 11 12 12 11 11 11 11 11 11 11 12 12 10
17 16 9 3 3 3 3 5 7 2 9 17 9 10 7 9 11 8 8 13 14 17 16 18 17 16 15 13 11 10 10 10 11 12 13 13 12 12 13 12 12 12 11 11 10 10 11 11 11
17 12 3 2 3 6 3 7 3 9 14 5 4 5 3 4 7 6 9 14 17 19 16 17 18 17 18 14 12 9 8 8 10 12 14 15 14 12 12 14 14 13 14 13 11 12 12 12 12
10 4 3 4 12 8 6 4 8 13 2 3 3 7 7 12 8 11 10 13 17 17 17 16 19 17 17 16 14 9 7 6 8 12 14 14 14 15 13 15 17 17 17 15 15 17 15 16 14
10 3 4 5 11 6 10 19 11 9 8 4 2 3 7 19 16 15 11 17 18 17 17 16 17 20 19 17 15 11 7 5 7 10 12 13 12 15 18 19 20 20 20 19 19 19 17 19 19
4 2 4 10 13 10 10 15 9 9 7 4 2 4 9 16 16 16 15 18 18 15 17 17 18 19 19 17 16 13 11 10 8 10 11 12 13 17 18 20 21 22 21 20 21 21 21 20 21
5 4 6 9 15 12 9 10 7 7 5 3 6 4 6 10 16 14 16 19 20 19 17 17 19 20 19 19 17 15 12 11 10 12 11 12 14 17 18 21 23 25 25 24 23 25 25 24 23
3 3 5 7 9 10 2 3 3 2 6 8 5 4 8 21 18 18 18 22 25 22 20 18 20 21 23 23 21 18 14 12 12 13 12 13 15 17 20 19 20 21 22 24 28 29 27 25 24
7 7 13 16 12 10 2 4 3 3 11 8 8 18 21 24 23 22 20 28 29 27 25 22 21 24 25 24 22 20 15 14 13 14 14 15 16 16 16 17 15 14 16 15 15 16 19 22 23
10 12 20 16 15 13 12 6 12 10 21 25 23 21 20 23 26 26 26 31 35 34 31 26 25 26 26 27 25 22 17 15 13 15 16 16 16 15 15 13 12 13 13 11 13 15 17 18 15
12 20 26 25 24 12 21 21 18 20 24 29 24 28 30 25 31 30 27 29 38 39 33 30 29 28 29 30 26 22 18 15 15 16 16 15 15 16 14 12 11 12 12 14 15 17 17 15 14
15 28 31 32 22 16 22 24 22 28 37 31 33 29 31 33 33 33 28 30 39 42 38 32 29 30 32 31 26 22 18 16 16 15 14 14 15 16 15 13 12 11 11 11 12 13 14 16 15
23 23 26 30 28 26 25 25 22 36 42 33 31 30 32 35 34 34 32 31 38 44 44 36 31 30 33 32 27 22 19 17 15 14 13 14 14 14 15 15 15 14 13 13 13 13 12 13 14
14 29 29 24 20 28 23 31 24 35 33 28 27 31 32 33 34 34 32 31 35 40 44 42 34 34 35 32 27 22 18 16 13 12 12 13 15 15 16 17 18 17 16 13 13 13 12 12 14
18 15 13 16 17 14 11 26 20 41 28 28 33 28 32 32 27 31 29 30 31 37 43 47 35 34 34 32 27 21 18 15 12 11 13 15 17 18 18 19 19 19 20 15 14 14 12 12 13
10 11 18 12 20 14 15 32 20 25 18 22 24 22 27 36 32 26 28 28 30 36 44 44 39 33 32 30 26 20 17 13 10 11 14 16 18 18 18 19 19 17 18 17 15 14 13 13 13
11 14 15 13 11 5 16 21 17 15 11 20 28 27 28 31 37 33 28 25 24 29 41 37 36 31 29 27 23 19 15 12 11 12 13 15 16 16 16 17 16 16 17 16 15 14 13 13 12
15 15 14 16 11 17 23 26 19 24 18 24 26 27 28 33 38 32 30 19 17 22 31 29 31 27 27 26 21 17 13 11 12 13 13 15 15 14 14 14 13 15 15 14 14 14 13 14 13
18 20 25 22 15 15 19 19 14 19 23 26 28 30 34 37 32 29 19 13 14 22 25 27 29 28 31 26 22 16 12 10 11 12 14 14 13 12 12 12 12 13 13 12 13 14 15 15 13
22 23 21 14 12 10 17 20 16 17 24 29 26 29 31 27 29 20 17 16 19 19 23 26 29 33 27 21 16 12 10 10 9 11 13 12 11 11 11 11 9 10 11 12 13 14 15 16 14
25 25 23 19 15 14 17 22 19 20 13 21 24 28 31 30 24 13 14 15 18 20 23 29 33 28 22 19 15 10 8 6 6 8 10 8 8 8 8 6 8 7 7 8 10 11 13 15 16
25 24 20 18 11 14 3 14 17 19 22 22 28 24 25 25 20 14 13 14 15 20 25 31 29 23 20 17 12 8 5 3 5 8 8 7 5 4 2 6 7 5 4 4 4 7 12 14 13
16 11 15 16 17 16 17 11 12 14 22 24 20 26 21 14 13 15 13 11 13 19 30 29 25 21 18 14 11 6 2 3 6 8 7 6 3 2 3 6 5 3 2 3 6 9 12 11 11
12 7 8 6 7 12 15 11 14 14 20 18 14 16 7 13 11 10 10 12 17 28 30 27 23 20 17 13 10 5 1 2 7 8 7 3 5 5 6 7 7 5 3 4 6 9 10 9 8
20 12 5 6 8 10 16 13 18 14 19 18 19 13 8 10 4 11 18 23 31 35 30 25 22 19 15 13 10 4 1 3 7 8 4 2 6 9 9 8 8 7 4 4 5 6 7 7 6
24 20 8 7 5 10 5 9 7 16 20 29 23 16 7 6 10 16 20 30 35 33 28 24 22 17 15 13 9 5 3 4 5 6 4 7 11 11 10 8 6 5 4 4 3 5 5 4 4
17 18 15 6 2 7 3 6 11 18 14 11 11 8 7 11 14 19 25 32 34 30 26 23 20 15 14 13 9 5 4 3 4 6 7 9 10 11 9 8 5 4 3 2 2 4 4 4 3
19 17 10 9 8 8 8 8 8 14 8 8 8 8 11 15 17 22 27 33 31 27 24 22 16 15 15 11 9 6 2 2 3 4 5 7 9 10 8 7 6 3 4 2 3 3 3 5 7
11 16 7 10 7 6 4 5 11 16 12 8 3 9 12 16 19 23 27 31 28 25 24 21 17 15 14 11 10 6 1 1 1 1 3 6 9 9 7 6 5 3 4 4 4 3 4 7 9
21 20 20 9 9 10 3 6 2 8 7 6 2 10 16 16 19 23 26 31 28 26 25 19 17 15 13 11 9 8 3 0 0 1 4 6 9 9 7 5 5 6 6 8 8 8 9 9 8
Wind_Direction
157 149 151 147 216 267 238 236 248 260 257 196 182 203 259 272 200 296 280 191 172 183 182 191 195 197 207 211 222 234 250 265 279 281 281 279 279 270 263 261 249 248 255 262 269 271 274 284 275
153 146 153 133 230 228 212 229 222 264 311 309 236 229 234 273 244 269 267 183 175 179 183 188 191 195 209 213 221 234 252 272 285 285 284 282 284 281 277 270 267 267 262 252 256 266 274 274 280
151 153 180 221 200 227 237 207 239 314 314 258 276 234 232 232 259 245 213 194 181 180 183 189 190 193 207 211 218 230 252 282 294 290 284 280 282 275 267 260 268 274 281 276 253 265 273 274 275
157 148 94 239 233 240 238 231 287 314 334 77 265 279 269 266 274 262 228 203 185 186 189 190 195 196 205 213 217 222 243 276 297 298 293 285 282 270 263 265 261 272 273 265 258 253 253 262 262
159 151 228 247 251 255 245 263 276 283 298 292 226 272 265 275 278 259 236 210 195 191 190 192 197 203 207 213 216 220 233 266 305 304 294 286 274 265 266 266 263 269 265 258 260 262 256 255 258
157 154 232 248 253 265 262 257 251 251 242 299 204 257 265 284 302 275 239 213 200 198 194 197 200 206 211 217 218 223 234 245 288 308 298 282 269 267 264 264 261 261 262 260 261 258 259 254 254
216 186 245 271 277 280 255 246 207 201 244 308 280 241 257 311 327 279 239 213 205 202 202 205 207 210 216 222 220 224 236 249 278 303 293 270 267 265 267 268 268 266 262 260 255 256 257 252 252
196 221 241 242 270 272 317 241 131 181 288 300 265 247 304 311 320 309 257 217 210 209 207 212 212 215 216 220 221 223 236 253 276 293 288 276 273 271 277 277 274 270 266 259 255 257 255 253 252
182 228 240 236 235 254 292 272 46 274 283 278 274 288 297 303 309 302 264 225 214 215 214 214 217 220 220 223 223 224 237 253 273 287 287 282 276 276 272 278 275 272 265 262 262 260 259 252 248
196 225 233 236 241 256 282 302 309 299 296 283 286 289 294 302 300 294 276 245 222 220 221 220 221 222 223 223 223 225 238 253 275 285 285 280 275 271 274 270 269 267 257 256 252 251 260 260 249
210 231 232 253 248 264 283 281 291 292 283 285 293 295 301 297 295 295 283 265 243 228 226 226 226 224 225 224 224 227 240 255 278 280 278 273 270 265 267 260 269 263 255 249 253 258 261 262 243
235 231 236 247 256 261 263 285 284 281 272 283 290 291 292 293 294 294 276 264 242 236 234 229 230 228 227 226 228 232 245 261 275 275 268 266 265 259 260 259 262 264 253 256 260 267 268 257 253
229 242 234 245 259 260 270 265 267 279 283 287 281 286 287 293 292 293 290 281 255 243 238 231 230 230 228 225 228 231 247 267 268 270 265 266 266 265 262 259 256 253 253 257 263 261 265 253 247
237 239 243 244 251 261 269 270 269 267 272 286 281 282 286 287 292 294 288 281 262 255 245 237 232 230 227 226 228 234 251 261 263 264 273 272 267 267 264 260 256 254 253 252 255 256 260 256 244
239 255 238 237 235 242 285 271 248 265 278 271 279 284 288 291 292 293 293 289 279 261 246 240 231 230 227 227 226 232 252 253 258 273 277 278 274 270 266 262 257 254 246 250 251 251 256 252 246
223 230 243 229 233 245 216 266 264 269 274 277 280 284 287 288 289 291 294 286 283 263 253 245 233 230 228 224 221 233 245 248 259 280 283 281 277 272 266 265 262 260 246 247 248 245 250 248 244
215 238 228 243 210 202 197 264 261 269 285 284 283 285 285 289 295 293 290 284 281 267 257 247 232 226 223 211 215 230 238 246 264 283 288 285 283 275 270 269 261 254 246 243 242 239 241 241 237
221 226 236 243 229 223 245 253 272 283 289 277 281 287 284 284 294 302 299 276 261 259 255 241 229 219 205 202 214 226 234 249 266 280 287 290 282 273 273 266 258 246 240 238 240 241 242 235 230
249 247 246 252 239 238 257 274 280 287 288 281 283 288 285 285 297 297 288 275 255 251 244 229 215 202 194 199 212 217 230 251 269 275 288 291 279 274 273 265 257 245 235 237 240 245 241 237 222
228 242 242 251 256 269 278 278 286 283 276 280 281 285 281 286 293 287 274 256 252 245 229 215 203 194 191 204 205 207 226 254 270 280 289 288 274 275 278 267 247 226 229 237 247 249 242 226 213
224 233 239 245 266 270 281 280 276 276 273 277 282 280 281 278 285 287 267 252 236 223 213 194 185 182 191 195 194 203 232 264 295 298 304 288 276 282 279 247 214 213 226 242 252 241 218 205 205
230 225 251 251 257 263 317 288 275 286 285 281 282 276 270 271 279 280 276 248 229 206 189 176 173 181 186 187 185 199 226 278 313 319 311 292 282 295 273 192 183 208 218 228 229 193 187 197 209
235 228 225 237 248 273 260 265 280 283 281 275 275 269 267 289 292 260 249 227 206 187 172 167 173 178 178 177 177 185 259 298 332 334 316 285 263 210 169 163 160 148 153 192 185 173 176 190 201
197 209 198 229 253 254 262 248 276 266 259 274 267 263 273 312 300 236 206 180 164 162 163 168 171 170 171 171 173 170 22 330 349 339 320 273 219 177 149 138 129 112 119 160 165 176 185 198 212
195 182 213 230 220 247 237 238 248 263 254 260 266 278 320 300 231 171 161 154 155 161 165 167 167 165 167 171 168 159 11 4 354 346 341 166 179 160 142 131 121 111 114 134 163 184 200 206 211
192 190 173 207 228 264 147 220 256 247 263 245 251 272 275 204 164 152 156 154 158 163 167 165 162 160 163 165 160 151 55 18 4 7 99 128 143 147 142 133 128 131 141 132 132 166 179 189 201
184 205 208 264 267 279 197 268 280 246 245 237 239 234 195 169 157 154 158 158 162 167 167 164 158 159 161 162 157 138 66 49 36 59 102 134 143 149 150 154 149 166 188 171 144 143 172 205 198
205 186 186 206 228 245 256 285 255 298 272 206 193 195 171 157 154 158 162 164 166 167 165 160 158 160 160 159 155 147 74 65 54 66 96 142 153 158 160 173 162 165 183 165 152 164 193 179 170
179 189 193 191 214 209 284 259 230 246 267 265 316 147 158 156 158 162 165 167 167 167 164 158 159 159 163 162 163 153 130 72 64 90 111 145 157 162 169 170 172 152 139 128 120 126 161 157 166
197 191 183 185 190 227 329 265 268 250 283 291 222 141 147 160 160 164 166 167 169 168 166 161 162 161 164 163 169 163 194 254 324 176 159 153 155 162 162 158 163 147 129 130 115 109 100 122 139